This is the latest recevied weather packets stored in our database for station/object HK4RAU-16. If no packets are shown the sender has not sent any weather packets the latest 10 day(s).
| Time | Temp. | Humidity | Pressure | Rain* | Wind** | Luminosity | Snow |
|---|---|---|---|---|---|---|---|
| 1777636735 | 21.67° C | 95% | 1015 hPa | 0 mm | - | - | - |
| 1777636024 | 15.56° C | 93% | 1015 hPa | 0 mm | - | - | - |
| 1777634597 | 16.11° C | 93% | 1014 hPa | 0 mm | - | - | - |
| 1777633888 | 14.44° C | 93% | 1014 hPa | 0 mm | - | - | - |
| 1777633171 | 15° C | 93% | 1014 hPa | 0 mm | - | - | - |
| 1777631745 | 15.56° C | 93% | 1014 hPa | 0 mm | - | - | - |
| 1777631437 | 16.11° C | 93% | 1014 hPa | 0 mm | - | - | - |
| 1777631131 | 16.11° C | 93% | 1014 hPa | 0 mm | - | - | - |
| 1777630823 | 14.44° C | 96% | 1014 hPa | 0 mm | - | - | - |
| 1777630517 | 14.44° C | 96% | 1014 hPa | 0 mm | - | - | - |
| 1777630213 | 15° C | 96% | 1014 hPa | 0 mm | - | - | - |
| 1777629901 | 15.56° C | 96% | 1014 hPa | 0 mm | - | - | - |
| 1777629274 | 16.11° C | 96% | 1014 hPa | 0 mm | - | - | - |
| 1777628940 | 14.44° C | 95% | 1014 hPa | 0 mm | - | - | - |
| 1777628632 | 15° C | 95% | 1014 hPa | 0 mm | - | - | - |
| 1777628019 | 15.56° C | 95% | 1014 hPa | 0 mm | - | - | - |
| 1777627717 | 16.11° C | 95% | 1013 hPa | 0 mm | - | - | - |
| 1777627109 | 16.67° C | 95% | 1013 hPa | 0 mm | - | - | - |
| 1777626803 | 15° C | 96% | 1013 hPa | 0 mm | - | - | - |
| 1777626501 | 15° C | 96% | 1013 hPa | 0 mm | - | - | - |
| 1777626194 | 15.56° C | 96% | 1013 hPa | 0 mm | - | - | - |
| 1777625887 | 16.11° C | 96% | 1013 hPa | 0 mm | - | - | - |
| 1777625580 | 16.67° C | 96% | 1013 hPa | 0 mm | - | - | - |
| 1777625273 | 16.67° C | 96% | 1013 hPa | 0 mm | - | - | - |
| 1777624966 | 15° C | 93% | 1013 hPa | 0 mm | - | - | - |
* Rain latest hour (hover to see other rain measurements)
** Current wind speed in m/s (hover to see current wind gust speed)